When you browse on this site, cookies collect data to enhance your experience and personalize the content and advertising you see.
Visit our Privacy Policy to learn more. By continuing to use the site, you agree to this use of cookies and data.
  • Em Portugal
  • Lista de países
  • Para 7 dias
  • Temperatura da água
  • Mapas de satélite
  • Mapa do tempo
  • Widgets de tempo
  • user-avatar
    Iniciar Sessão

    Previsão horária em Bugojno

    Hoje, 21 Abril, Domingo

    Tempo Temperatura Precipitação Vento Pressão Humidade
    00:00 +7°C° 0 mm 1 m/s 716 mmHg 79%
    01:00 +6°C° 0 mm 0 m/s 716 mmHg 80%
    02:00 +6°C° 0 mm 1 m/s 716 mmHg 80%
    03:00 +6°C° 0 mm 1 m/s 716 mmHg 79%
    04:00 +6°C° 0 mm 1 m/s 716 mmHg 79%
    05:00 +8°C° 0 mm 1 m/s 716 mmHg 72%
    06:00 +9°C° 0 mm 1 m/s 716 mmHg 65%
    07:00 +11°C° 0 mm 1 m/s 716 mmHg 58%
    08:00 +13°C° 0 mm 1 m/s 716 mmHg 51%
    09:00 +16°C° 0 mm 1 m/s 716 mmHg 44%
    10:00 +19°C° 0 mm 1 m/s 716 mmHg 37%
    11:00 +20°C° 0 mm 1 m/s 716 mmHg 35%
    12:00 +21°C° 0 mm 1 m/s 716 mmHg 34%
    13:00 +22°C° 0 mm 1 m/s 716 mmHg 32%
    14:00 +22°C° 0 mm 1 m/s 715 mmHg 34%
    15:00 +21°C° 0 mm 1 m/s 715 mmHg 36%
    16:00 +20°C° 0 mm 1 m/s 714 mmHg 38%
    17:00 +18°C° 0 mm 1 m/s 714 mmHg 49%
    18:00 +15°C° 0 mm 1 m/s 713 mmHg 60%
    19:00 +12°C° 0 mm 1 m/s 713 mmHg 72%
    20:00 +12°C° 0 mm 1 m/s 713 mmHg 78%
    21:00 +11°C° 0 mm 1 m/s 713 mmHg 84%
    22:00 +10°C° 0 mm 1 m/s 713 mmHg 90%
    23:00 +10°C° 0 mm 1 m/s 713 mmHg 91%

    Amanhã, 22 Abril, Segunda-feira

    Tempo Temperatura Precipitação Vento Pressão Humidade
    00:00 +10°C° 0 mm 1 m/s 713 mmHg 91%
    01:00 +9°C° 0 mm 1 m/s 712 mmHg 92%
    02:00 +8°C° 0 mm 2 m/s 712 mmHg 92%
    03:00 +7°C° 0 mm 2 m/s 712 mmHg 92%
    04:00 +7°C° 0 mm 2 m/s 711 mmHg 92%
    05:00 +8°C° 0 mm 2 m/s 711 mmHg 88%
    06:00 +9°C° 0 mm 2 m/s 711 mmHg 84%
    07:00 +10°C° 0 mm 2 m/s 711 mmHg 79%
    08:00 +14°C° 0 mm 2 m/s 711 mmHg 69%
    09:00 +16°C° 0 mm 2 m/s 711 mmHg 59%
    10:00 +18°C° 0 mm 3 m/s 711 mmHg 49%
    11:00 +18°C° 0 mm 3 m/s 710 mmHg 49%
    12:00 +19°C° 0 mm 3 m/s 710 mmHg 49%
    13:00 +19°C° 0 mm 4 m/s 709 mmHg 48%
    14:00 +19°C° 0 mm 4 m/s 709 mmHg 51%
    15:00 +18°C° 0 mm 4 m/s 708 mmHg 53%
    16:00 +18°C° 0 mm 4 m/s 708 mmHg 56%
    17:00 +15°C° 0 mm 4 m/s 707 mmHg 62%
    18:00 +13°C° 0 mm 3 m/s 707 mmHg 69%
    19:00 +11°C° 0 mm 3 m/s 706 mmHg 75%
    20:00 +11°C° 0.1 mm 3 m/s 706 mmHg 79%
    21:00 +11°C° 0.1 mm 3 m/s 707 mmHg 82%
    22:00 +10°C° 0.1 mm 3 m/s 707 mmHg 85%
    23:00 +10°C° 0.7 mm 4 m/s 706 mmHg 87%

    Depois de amanhã, 23 Abril, Terça-feira

    Tempo Temperatura Precipitação Vento Pressão Humidade
    00:00 +10°C° 0.7 mm 4 m/s 706 mmHg 89%
    01:00 +10°C° 0.7 mm 4 m/s 706 mmHg 90%
    02:00 +10°C° 0 mm 4 m/s 705 mmHg 90%
    03:00 +10°C° 0 mm 4 m/s 705 mmHg 89%
    04:00 +10°C° 0 mm 4 m/s 705 mmHg 89%
    05:00 +9°C° 0 mm 5 m/s 705 mmHg 87%
    06:00 +10°C° 0 mm 5 m/s 704 mmHg 85%
    07:00 +12°C° 0 mm 5 m/s 704 mmHg 83%
    08:00 +13°C° 0 mm 6 m/s 705 mmHg 80%
    09:00 +14°C° 0 mm 6 m/s 705 mmHg 77%
    10:00 +14°C° 0 mm 7 m/s 705 mmHg 74%
    11:00 +15°C° 0.1 mm 7 m/s 705 mmHg 75%
    12:00 +15°C° 0.1 mm 6 m/s 705 mmHg 76%
    13:00 +15°C° 0.1 mm 6 m/s 705 mmHg 77%
    14:00 +15°C° 0.2 mm 6 m/s 705 mmHg 78%
    15:00 +15°C° 0.2 mm 6 m/s 705 mmHg 79%
    16:00 +15°C° 0.2 mm 5 m/s 705 mmHg 80%
    17:00 +14°C° 0.2 mm 5 m/s 705 mmHg 83%
    18:00 +13°C° 0.2 mm 4 m/s 705 mmHg 86%
    19:00 +12°C° 0.2 mm 4 m/s 705 mmHg 89%
    20:00 +12°C° 0.1 mm 4 m/s 706 mmHg 90%
    21:00 +12°C° 0.1 mm 4 m/s 707 mmHg 91%
    22:00 +12°C° 0.1 mm 4 m/s 707 mmHg 92%
    23:00 +12°C° 0.6 mm 4 m/s 708 mmHg 92%

    24 Abril, Quarta-feira

    Tempo Temperatura Precipitação Vento Pressão Humidade
    00:00 +12°C° 0.6 mm 4 m/s 708 mmHg 93%
    01:00 +12°C° 0.6 mm 4 m/s 708 mmHg 93%
    02:00 +13°C° 0.2 mm 4 m/s 709 mmHg 93%
    03:00 +13°C° 0.2 mm 4 m/s 709 mmHg 92%
    04:00 +13°C° 0.2 mm 4 m/s 709 mmHg 92%
    05:00 +13°C° 0.1 mm 4 m/s 709 mmHg 91%
    06:00 +13°C° 0.1 mm 4 m/s 710 mmHg 89%
    07:00 +13°C° 0.1 mm 4 m/s 710 mmHg 88%
    08:00 +14°C° 0 mm 4 m/s 711 mmHg 82%
    09:00 +17°C° 0 mm 4 m/s 711 mmHg 76%
    10:00 +18°C° 0 mm 4 m/s 712 mmHg 69%
    11:00 +19°C° 0 mm 4 m/s 712 mmHg 65%
    12:00 +20°C° 0 mm 5 m/s 712 mmHg 61%
    13:00 +21°C° 0 mm 5 m/s 712 mmHg 57%
    14:00 +21°C° 0 mm 5 m/s 712 mmHg 58%
    15:00 +20°C° 0 mm 5 m/s 712 mmHg 58%
    16:00 +20°C° 0 mm 4 m/s 712 mmHg 58%
    17:00 +18°C° 0 mm 4 m/s 712 mmHg 67%
    18:00 +16°C° 0 mm 3 m/s 712 mmHg 77%
    19:00 +14°C° 0 mm 2 m/s 712 mmHg 86%
    20:00 +14°C° 0 mm 2 m/s 712 mmHg 86%
    21:00 +13°C° 0 mm 2 m/s 713 mmHg 86%
    22:00 +12°C° 0 mm 2 m/s 713 mmHg 86%
    23:00 +12°C° 0 mm 2 m/s 713 mmHg 87%

    25 Abril, Quinta-feira

    Tempo Temperatura Precipitação Vento Pressão Humidade
    00:00 +12°C° 0 mm 2 m/s 713 mmHg 87%
    01:00 +12°C° 0 mm 2 m/s 713 mmHg 87%
    02:00 +12°C° 0 mm 2 m/s 713 mmHg 87%
    03:00 +12°C° 0 mm 2 m/s 713 mmHg 88%
    04:00 +12°C° 0 mm 2 m/s 713 mmHg 88%
    05:00 +13°C° 0 mm 2 m/s 713 mmHg 83%
    06:00 +15°C° 0 mm 2 m/s 714 mmHg 78%
    07:00 +16°C° 0 mm 2 m/s 714 mmHg 73%
    08:00 +18°C° 0 mm 2 m/s 714 mmHg 65%
    09:00 +20°C° 0 mm 2 m/s 715 mmHg 57%
    10:00 +23°C° 0 mm 2 m/s 715 mmHg 49%
    11:00 +24°C° 0 mm 3 m/s 715 mmHg 47%
    12:00 +25°C° 0 mm 3 m/s 715 mmHg 45%
    13:00 +25°C° 0 mm 3 m/s 715 mmHg 43%
    14:00 +25°C° 0 mm 3 m/s 714 mmHg 45%
    15:00 +25°C° 0 mm 3 m/s 714 mmHg 47%
    16:00 +24°C° 0 mm 3 m/s 713 mmHg 49%
    17:00 +21°C° 0 mm 2 m/s 713 mmHg 59%
    18:00 +19°C° 0 mm 2 m/s 713 mmHg 70%
    19:00 +16°C° 0 mm 2 m/s 713 mmHg 80%
    20:00 +16°C° 0 mm 2 m/s 713 mmHg 79%
    21:00 +15°C° 0 mm 2 m/s 713 mmHg 79%
    22:00 +14°C° 0 mm 2 m/s 713 mmHg 79%
    23:00 +14°C° 0 mm 2 m/s 713 mmHg 76%

    26 Abril, Sexta-feira

    Tempo Temperatura Precipitação Vento Pressão Humidade
    00:00 +14°C° 0 mm 2 m/s 712 mmHg 74%
    01:00 +13°C° 0 mm 2 m/s 712 mmHg 72%
    02:00 +13°C° 0 mm 2 m/s 712 mmHg 72%
    03:00 +13°C° 0 mm 2 m/s 712 mmHg 71%
    04:00 +13°C° 0 mm 2 m/s 712 mmHg 71%
    05:00 +14°C° 0 mm 2 m/s 712 mmHg 69%
    06:00 +15°C° 0 mm 2 m/s 712 mmHg 67%
    07:00 +17°C° 0 mm 2 m/s 712 mmHg 65%
    08:00 +18°C° 0 mm 2 m/s 712 mmHg 61%
    09:00 +19°C° 0 mm 3 m/s 712 mmHg 56%
    10:00 +21°C° 0 mm 3 m/s 712 mmHg 52%
    11:00 +22°C° 0 mm 3 m/s 712 mmHg 49%
    12:00 +23°C° 0 mm 4 m/s 712 mmHg 45%
    13:00 +25°C° 0 mm 4 m/s 711 mmHg 42%
    14:00 +23°C° 0 mm 4 m/s 711 mmHg 44%
    15:00 +23°C° 0 mm 4 m/s 711 mmHg 46%
    16:00 +22°C° 0 mm 4 m/s 710 mmHg 48%
    17:00 +20°C° 0 mm 3 m/s 710 mmHg 57%
    18:00 +18°C° 0 mm 3 m/s 710 mmHg 67%
    19:00 +16°C° 0 mm 2 m/s 709 mmHg 77%
    20:00 +15°C° 0 mm 2 m/s 710 mmHg 80%
    21:00 +14°C° 0 mm 1 m/s 710 mmHg 83%
    22:00 +14°C° 0 mm 1 m/s 710 mmHg 86%
    23:00 +14°C° 0.1 mm 1 m/s 711 mmHg 85%
    Mostrar mais